Theta_e
318 317 315 314 315 315 315 316 317 317 316 314 313 313 312 312 313 313 313 313 315 318 320 321 322 321 320 321 324 325 324 323 323 323 322 319 317 315 311 310 311 312 310 312 314 315 313 310 310 313 315 316 317 317 317 318 318 319 320 319 318 318 318 318 317 316 317 317 315 312 314 318 316 313 313 314 314 314 314 314 315 316 317 316 316 316 315 316
317 316 314 314 314 315 315 315 316 316 315 314 311 311 311 311 311 311 312 312 314 316 317 317 316 316 315 316 320 324 324 323 321 320 320 318 316 314 312 310 310 311 311 312 314 315 313 310 310 313 316 317 316 316 317 318 318 319 320 318 318 320 317 316 317 316 316 316 315 313 314 316 316 314 313 314 315 314 314 315 315 315 316 316 316 316 316 315
316 314 314 314 314 316 315 313 315 314 314 313 310 309 309 309 309 310 311 312 313 313 313 313 313 313 313 316 321 324 323 319 316 317 319 317 315 313 312 311 310 311 311 312 314 315 312 310 311 313 316 316 316 316 317 318 317 318 319 319 320 320 316 314 315 315 313 314 315 313 313 314 315 314 314 315 315 314 315 315 315 315 316 316 316 316 316 315
315 313 314 314 315 316 315 312 313 313 313 313 310 309 308 308 308 309 310 310 310 311 312 312 312 314 317 321 323 322 317 312 313 318 318 316 314 312 311 311 311 311 311 313 315 314 311 310 311 314 316 316 315 315 316 317 317 317 318 318 318 317 316 314 313 313 312 313 314 313 312 313 313 313 314 315 315 315 316 316 315 315 315 315 316 316 316 316
315 314 314 314 315 316 315 314 313 312 314 313 310 309 307 306 307 308 309 310 311 312 313 313 316 319 322 323 321 316 311 310 313 316 315 314 313 311 310 310 310 311 311 314 315 312 310 310 312 314 315 315 315 315 315 314 316 317 315 315 314 315 316 314 312 313 312 313 313 312 313 314 313 313 314 314 316 316 316 315 315 315 315 314 315 316 316 316
315 315 315 313 313 315 314 314 313 313 314 312 310 309 306 307 308 310 311 312 314 315 316 318 320 322 323 321 317 312 310 312 312 311 312 312 311 310 310 310 310 311 312 315 314 311 310 311 313 314 314 314 315 315 314 313 315 318 314 311 311 313 314 313 312 313 312 312 313 313 314 313 313 313 313 314 316 316 315 315 315 315 315 314 314 315 315 316
314 315 315 311 312 315 314 314 314 312 313 312 310 308 307 309 310 312 314 316 317 318 320 321 322 322 321 316 312 309 310 311 311 312 312 311 311 310 310 310 310 310 312 314 313 310 310 311 313 314 313 314 313 313 313 313 314 317 315 311 311 311 312 312 312 313 312 312 312 313 313 313 314 314 312 313 315 315 314 314 314 314 314 314 314 315 315 315
314 314 313 311 314 315 313 314 313 312 314 313 310 308 309 311 312 314 316 318 319 320 321 322 322 320 317 312 309 308 309 310 311 312 312 310 311 310 310 310 310 310 313 314 312 310 310 312 313 313 313 313 313 312 312 313 314 316 314 311 311 310 311 312 312 311 311 311 312 312 313 312 313 313 312 313 315 315 315 314 314 314 314 314 314 314 315 315
314 315 312 311 315 314 312 313 312 312 314 312 309 309 312 313 315 316 318 319 319 320 320 320 319 315 312 309 308 309 309 310 311 312 313 311 310 310 310 310 310 312 313 313 311 310 311 312 313 313 312 311 312 312 312 314 314 314 313 311 311 310 310 310 310 310 310 310 311 312 313 312 311 311 313 314 314 314 314 314 314 314 314 314 314 314 314 314
315 314 311 312 314 313 313 312 311 312 312 310 309 311 314 315 317 318 319 320 320 321 319 316 314 310 309 308 308 310 310 311 311 311 311 311 310 309 309 310 312 313 313 313 311 311 312 312 313 312 312 311 312 312 311 313 313 312 311 311 311 311 310 310 311 310 310 310 311 313 313 311 311 311 314 315 314 314 314 314 314 314 314 314 314 314 314 314
314 313 312 314 314 312 312 310 311 313 311 308 310 311 314 316 317 319 319 320 321 319 316 312 310 309 309 308 309 310 311 311 310 310 310 311 310 309 309 312 314 313 312 312 311 310 312 312 312 312 312 312 311 311 311 311 312 312 312 312 311 311 311 311 312 311 311 312 310 312 312 311 310 311 315 314 314 314 314 314 314 314 314 314 314 314 314 314
314 313 313 314 313 311 311 310 312 312 308 308 309 311 314 316 318 319 320 320 317 314 310 309 309 309 308 308 309 310 312 312 310 310 310 311 311 309 310 314 315 313 312 312 311 311 312 313 312 312 312 312 312 311 311 311 311 312 313 314 311 312 313 311 312 311 312 313 311 312 313 313 313 313 315 314 314 314 313 314 314 314 314 314 314 314 314 314
314 313 313 314 313 311 311 313 312 309 307 308 308 310 313 314 316 317 316 314 311 309 308 309 309 309 309 308 309 309 311 312 312 311 310 311 311 310 312 315 316 313 311 311 311 311 312 313 312 312 312 312 312 312 312 311 311 312 312 313 313 313 313 311 311 311 312 312 311 311 313 314 315 314 314 313 313 313 313 314 314 314 314 314 314 314 314 314
314 314 313 313 312 310 312 314 312 309 308 308 308 310 310 311 312 311 310 309 308 309 308 309 308 308 309 309 309 309 310 312 313 313 312 311 312 311 312 315 316 313 311 311 311 311 312 313 312 312 312 312 312 311 312 311 311 312 312 313 314 313 313 311 310 311 313 312 311 311 312 314 315 313 312 313 313 313 313 313 314 314 314 314 314 314 314 315
314 314 313 313 312 311 312 313 311 310 309 308 308 308 308 309 308 308 309 308 308 308 308 308 308 308 308 309 310 309 309 311 313 314 314 312 312 312 313 315 315 312 311 311 311 311 312 312 312 312 312 311 312 312 313 312 311 311 311 313 314 313 313 312 310 310 313 312 311 312 312 314 315 313 310 311 312 312 313 313 313 314 314 314 314 314 315 315
314 314 313 313 312 311 312 312 311 311 309 308 308 308 308 308 308 308 308 308 309 308 308 307 307 308 308 308 309 309 309 309 311 313 314 313 313 313 313 314 313 312 312 313 313 313 312 312 312 312 311 311 312 314 313 313 312 312 312 314 314 313 312 312 310 309 311 312 312 311 313 314 315 313 311 311 312 312 313 313 313 313 313 314 314 314 314 315
314 314 313 312 311 311 311 311 311 311 309 308 308 308 308 308 308 308 308 308 308 307 307 307 307 308 308 309 310 310 309 309 310 311 313 313 313 314 313 313 313 313 313 314 314 314 313 312 312 311 312 311 313 314 313 312 313 313 313 314 313 312 311 312 312 310 309 312 313 312 312 313 315 314 312 312 313 312 312 313 313 313 313 313 314 314 314 315
314 313 312 312 312 311 311 311 312 311 308 308 308 308 308 308 308 308 308 307 306 306 307 307 307 308 308 309 311 311 310 309 310 310 312 313 314 313 313 313 313 314 314 314 314 313 313 312 312 313 313 311 312 313 313 312 313 313 313 313 312 311 311 312 312 310 309 312 313 313 312 313 314 314 314 314 313 312 312 313 314 314 314 314 314 314 314 314
313 313 312 312 312 311 311 311 311 310 308 308 308 308 307 307 307 307 307 306 307 307 308 308 307 309 309 309 311 311 310 310 310 310 311 313 314 314 314 314 314 314 314 314 314 313 313 313 313 314 313 312 313 313 314 315 315 315 314 313 313 313 311 312 311 308 309 312 313 313 313 314 314 314 315 315 313 312 312 312 313 315 315 315 315 315 315 315
312 312 312 312 312 311 310 310 311 309 308 308 308 307 308 309 309 308 307 306 308 308 309 308 307 309 309 309 311 312 311 311 311 311 312 314 314 314 315 314 314 314 314 315 315 313 313 314 314 314 314 314 314 313 313 313 314 314 314 313 315 315 312 311 310 308 308 312 314 314 314 314 314 314 315 315 314 312 312 312 313 315 315 316 316 316 316 316
311 311 312 312 312 310 309 310 310 309 308 308 308 307 309 310 310 309 308 308 308 309 308 307 308 310 309 309 312 312 312 312 312 312 313 314 314 314 314 313 314 314 313 313 314 312 313 315 315 315 313 312 312 311 312 312 312 313 313 313 314 314 313 310 309 309 308 311 314 313 313 314 314 315 315 315 314 314 314 314 314 315 316 316 316 316 316 316
311 311 311 311 311 309 309 310 310 308 308 308 308 308 308 310 310 309 309 309 309 309 308 307 309 310 308 311 313 312 312 313 313 313 314 314 314 314 314 313 314 314 312 312 313 314 314 315 315 312 309 309 309 309 311 312 312 313 314 313 313 313 312 310 309 309 308 311 314 313 313 315 315 315 316 316 315 315 315 315 315 316 315 315 316 316 316 316
311 311 311 311 310 309 309 310 309 307 308 308 308 308 308 310 311 309 309 310 309 308 308 307 310 310 309 312 313 312 313 313 314 314 314 314 314 314 313 313 313 313 312 312 314 315 314 314 311 307 307 309 309 309 311 313 312 314 314 313 314 314 313 312 311 309 308 309 311 312 313 315 316 315 315 315 314 314 314 314 315 315 315 315 315 315 315 316
311 310 310 310 309 309 309 310 308 307 308 308 308 308 308 311 311 309 309 309 309 309 308 308 310 310 311 312 312 312 313 313 314 314 313 314 313 313 313 313 313 313 312 312 314 315 314 310 305 305 309 311 311 310 312 313 312 314 316 316 315 315 313 313 312 309 309 308 309 312 313 314 316 316 315 313 309 309 310 311 312 314 314 314 314 315 315 316
312 311 310 309 309 309 309 309 307 308 308 307 308 308 309 311 310 309 309 308 309 309 308 308 309 310 312 312 312 312 312 312 313 314 313 314 314 313 312 312 312 313 312 312 313 315 313 306 304 307 310 312 313 311 314 316 313 314 316 316 316 315 314 315 313 311 313 312 310 311 312 313 316 315 315 314 311 311 311 310 311 312 313 313 313 314 315 314
314 312 311 309 310 310 309 309 308 308 308 308 308 308 310 311 309 309 309 308 309 308 308 309 308 309 311 312 312 312 312 312 313 314 314 313 314 313 312 311 311 312 311 311 312 312 309 305 306 311 312 314 314 312 315 317 313 313 314 314 315 316 317 318 316 314 314 312 310 309 312 313 314 315 316 314 312 313 313 312 313 312 312 313 313 313 313 313
315 314 312 310 310 309 308 309 308 307 308 308 307 308 310 310 308 309 308 308 309 309 309 308 308 309 311 312 312 311 312 313 313 314 313 313 313 313 313 311 310 311 309 310 313 311 308 307 309 312 313 314 313 313 315 315 313 315 314 314 316 316 319 320 316 314 313 313 312 311 313 313 312 315 316 311 312 314 314 315 316 313 312 312 312 312 313 313
315 314 313 311 309 308 308 309 308 307 308 307 307 309 310 309 308 308 309 308 308 309 308 308 308 310 310 312 312 311 312 313 313 314 313 313 313 312 313 312 312 312 308 310 314 311 309 311 312 312 313 313 314 316 315 314 315 315 311 312 315 316 318 319 315 314 312 311 313 314 314 312 312 315 314 310 312 314 315 316 316 314 311 312 313 314 314 314
315 315 314 311 310 309 308 308 308 307 308 307 308 309 309 308 308 308 308 308 308 308 307 308 309 310 311 311 311 311 312 312 313 314 313 313 312 312 312 311 311 311 308 311 315 311 310 312 311 311 313 313 313 311 310 316 317 312 307 311 315 316 316 316 314 313 312 312 314 314 312 311 311 316 315 311 312 314 315 315 314 312 312 313 315 315 315 315
316 315 314 312 311 309 309 309 308 307 307 307 308 309 309 308 308 308 307 308 309 308 306 307 309 311 312 310 310 310 311 311 312 312 312 312 311 311 311 310 310 312 313 313 314 311 309 309 309 311 312 311 308 306 306 313 313 309 310 314 315 315 315 313 312 312 312 313 313 310 309 310 310 315 317 313 312 313 314 313 312 312 312 314 315 315 315 315
316 316 315 314 312 310 310 309 308 307 307 307 308 308 308 309 309 307 307 309 310 308 306 307 308 311 311 311 311 310 311 312 311 312 312 311 311 310 310 311 311 313 314 313 313 311 310 310 310 310 308 307 309 308 306 307 308 310 315 315 314 314 314 313 312 311 313 313 310 306 307 309 310 313 315 313 312 312 311 311 313 314 313 314 315 314 315 315
316 316 315 315 314 311 310 309 308 307 307 308 309 308 308 309 308 308 307 307 309 308 308 308 308 310 312 312 312 311 311 312 312 312 313 312 311 311 312 314 313 313 313 312 313 313 313 313 311 309 307 308 313 312 308 308 309 312 314 313 313 313 313 313 313 313 313 312 308 306 307 309 310 313 313 312 312 312 310 310 311 312 313 314 315 314 314 315
316 316 315 315 314 313 311 309 308 307 307 308 308 308 309 308 308 309 307 306 309 309 309 310 308 310 312 311 312 311 312 312 311 312 312 312 312 312 314 315 315 317 315 314 315 313 314 314 311 312 310 309 314 314 311 311 310 312 314 313 313 313 313 314 313 311 311 310 306 305 308 310 312 313 313 313 313 312 309 308 309 310 311 312 314 315 314 315
316 316 315 314 314 313 311 310 308 307 308 308 308 308 310 309 309 310 308 307 309 307 308 311 309 310 311 311 311 312 312 311 311 311 312 312 312 312 313 313 313 317 316 314 315 314 314 314 312 314 312 311 313 314 314 314 312 313 316 314 313 315 314 313 312 312 312 310 307 306 308 312 313 311 312 312 310 309 309 308 309 309 310 312 313 314 314 315
316 316 315 315 314 312 311 310 308 307 308 308 308 308 309 309 309 310 308 308 309 308 308 310 311 311 311 310 311 311 311 312 311 312 312 312 313 313 313 311 311 315 315 313 313 313 313 312 311 310 309 310 312 312 313 314 313 312 312 312 312 314 314 310 308 309 309 309 309 308 310 313 313 312 312 311 309 308 308 308 308 310 311 312 313 315 314 315
316 315 315 315 314 312 312 311 308 308 309 308 308 309 310 310 311 311 309 309 309 309 309 310 311 312 311 310 311 311 311 312 312 312 312 313 313 313 313 312 312 313 314 315 314 313 312 312 311 310 308 309 310 310 311 312 313 311 310 310 311 312 314 311 306 304 305 309 311 310 312 313 311 312 314 312 311 311 309 308 308 309 311 312 313 315 314 315
314 314 314 314 314 313 313 311 308 308 309 309 308 310 310 309 311 313 311 309 310 309 310 311 311 312 311 310 312 311 311 312 312 312 313 312 312 313 313 313 312 312 312 314 315 315 313 312 311 313 312 309 307 308 308 308 310 312 312 312 309 310 313 311 309 308 307 310 311 310 311 311 310 312 314 313 312 313 312 309 307 309 311 312 314 315 314 315
313 313 313 314 314 313 313 311 308 308 309 309 309 312 314 310 308 310 310 308 310 310 311 311 311 311 312 311 311 311 312 313 312 312 313 312 312 313 313 312 312 312 311 311 312 315 316 313 311 311 313 310 307 310 311 308 308 310 311 311 311 312 312 310 310 311 310 310 312 310 307 308 310 312 313 312 312 312 312 311 309 309 311 312 314 314 314 315
313 312 312 313 313 313 313 311 308 309 309 309 309 311 315 314 309 308 308 308 310 310 310 312 311 311 311 311 312 311 311 312 312 312 313 312 312 312 312 312 313 311 309 309 311 314 315 313 312 311 311 311 310 312 314 312 308 308 308 309 311 313 312 311 310 310 311 310 311 310 308 309 312 312 311 312 312 311 311 313 314 311 310 311 313 314 314 314
312 311 311 312 312 311 311 310 309 310 310 309 309 310 313 315 310 307 306 309 311 310 311 313 311 310 311 311 311 311 311 312 312 312 312 312 311 311 311 312 313 311 308 309 312 313 312 312 313 311 310 312 313 313 314 315 311 309 309 310 311 311 310 311 309 308 310 310 309 310 309 310 312 311 310 311 312 311 309 313 315 311 310 311 312 313 314 314
311 311 310 311 312 309 308 310 311 311 311 310 310 312 312 313 311 308 306 308 310 309 310 312 312 311 311 310 311 311 310 311 311 312 311 311 311 311 310 311 312 311 309 310 313 314 312 311 313 313 312 312 313 311 310 313 314 312 311 311 313 312 311 312 312 309 309 309 309 309 309 312 313 311 310 310 311 309 307 309 312 310 310 311 312 312 313 313
310 310 310 310 311 309 309 311 312 311 311 309 309 311 312 312 311 309 307 308 310 310 309 311 313 313 312 311 311 311 310 310 311 312 312 311 312 311 309 309 310 310 310 311 313 312 311 313 314 313 312 312 311 307 303 307 313 313 312 312 313 313 312 313 314 311 307 306 306 307 308 312 313 309 308 309 308 306 304 305 307 308 310 312 312 312 313 313
310 310 310 310 311 309 310 312 311 311 310 309 308 309 309 310 311 310 309 310 312 311 311 313 312 311 311 312 311 311 311 311 311 312 312 312 312 311 308 308 309 310 311 311 312 311 310 314 314 311 311 311 309 308 306 307 311 311 312 312 312 313 314 313 312 311 309 308 308 308 309 312 314 309 305 306 305 304 305 306 306 308 311 312 313 313 313 313
310 310 310 310 310 309 310 312 312 312 310 309 309 310 309 310 310 310 310 311 313 313 316 316 312 309 313 313 311 311 312 311 312 311 312 313 310 308 307 308 309 311 311 311 312 311 311 314 314 311 312 312 311 311 311 311 311 311 313 312 312 314 313 310 309 310 310 311 311 311 311 312 313 311 308 307 307 308 308 308 308 309 311 313 313 314 314 314
309 309 310 310 310 309 310 311 312 312 311 309 310 311 310 310 309 309 310 311 311 313 315 314 310 311 315 314 311 312 313 313 314 312 311 313 310 306 306 308 309 311 311 310 311 311 312 314 314 313 314 314 314 314 314 314 312 312 313 313 311 312 312 311 310 310 311 312 311 312 313 311 310 311 310 310 312 312 310 310 310 310 311 312 313 314 314 315
307 308 309 309 309 310 310 309 310 311 311 310 309 310 312 312 310 309 310 312 311 311 313 312 311 312 314 313 312 313 312 313 315 313 311 311 311 308 306 306 308 310 309 309 310 311 313 315 313 312 314 314 314 315 316 317 315 314 316 315 312 311 312 313 312 311 312 312 310 312 314 312 310 310 311 311 313 313 313 312 311 311 312 312 313 313 314 314
305 306 307 307 308 309 309 309 310 312 311 310 310 310 311 312 311 310 311 312 311 311 313 313 313 314 313 312 313 313 312 313 314 313 312 312 311 309 306 305 307 308 308 308 309 311 313 313 313 314 314 313 314 316 317 318 316 316 317 314 312 311 312 313 313 313 314 312 310 313 314 313 312 311 311 313 313 314 314 311 311 312 313 313 313 313 314 314
304 304 303 305 307 307 308 309 310 311 311 309 310 311 310 311 312 312 311 310 310 312 314 314 315 315 313 312 313 313 313 313 312 314 314 312 312 310 308 307 307 306 308 309 309 311 312 311 313 314 313 314 316 317 317 317 316 316 316 314 312 311 312 313 314 314 314 313 313 314 314 313 313 311 311 313 313 313 313 311 311 313 313 313 313 313 313 314
302 302 302 303 305 305 306 309 310 310 310 309 310 310 310 311 312 312 312 311 311 313 314 315 316 315 313 313 313 313 313 311 312 314 313 312 312 311 310 310 308 307 309 311 309 309 311 312 314 313 312 313 315 315 316 316 315 316 316 314 312 311 312 313 314 314 315 314 314 315 317 315 313 311 312 312 311 311 311 311 311 312 313 313 313 313 314 314
302 302 302 303 303 304 305 308 309 310 310 309 310 309 310 311 311 311 311 312 314 314 313 314 316 314 313 313 314 314 313 312 313 313 311 311 312 311 311 312 310 308 309 311 310 308 309 312 315 312 310 312 313 313 313 313 313 314 314 313 312 312 312 313 313 314 314 314 314 315 317 315 312 311 311 311 310 310 309 310 311 311 312 312 313 313 313 314
302 303 303 303 304 304 305 307 309 310 309 309 309 309 310 310 310 311 312 310 312 315 314 314 315 314 312 312 315 316 313 313 315 313 310 311 312 311 311 312 311 310 310 310 311 310 309 311 312 310 310 311 312 311 310 310 310 311 312 312 312 312 312 312 313 314 314 314 314 314 315 314 312 311 310 310 309 309 310 310 310 311 311 311 311 312 313 314
301 302 303 304 304 304 304 305 308 310 310 309 309 309 309 310 310 311 312 310 309 312 313 313 314 314 313 312 314 314 311 310 312 310 308 310 310 310 310 310 309 310 311 310 310 311 310 310 310 310 310 312 310 309 309 310 310 310 311 311 311 312 312 312 313 314 314 314 314 314 314 313 311 311 311 310 310 310 310 310 310 311 311 310 310 311 312 313
Wind_Speed
34 33 32 35 37 36 36 35 32 31 32 36 37 36 37 38 38 38 37 37 36 35 34 33 34 32 29 27 25 23 20 18 19 19 20 20 19 15 12 14 11 9 12 11 10 11 10 10 11 10 10 10 8 10 11 9 11 7 3 3 3 3 2 4 7 4 1 5 9 12 15 10 7 10 8 6 8 6 7 11 10 11 10 7 7 6 13 20
34 33 33 35 36 35 37 36 33 32 32 34 37 35 35 36 36 36 36 36 36 35 33 32 30 28 25 25 23 22 19 19 19 20 25 24 19 16 11 12 13 11 11 12 12 12 11 11 12 12 11 9 7 10 9 8 9 3 1 3 3 3 2 3 6 5 1 4 10 12 15 10 6 11 10 6 6 7 6 9 11 11 11 10 8 6 13 20
32 33 34 36 36 34 36 37 33 33 32 32 34 34 35 36 35 35 36 35 34 33 32 29 27 25 24 24 23 21 19 18 18 21 26 25 20 17 14 13 14 13 12 12 12 11 11 10 12 13 12 9 7 11 8 7 7 2 3 4 3 4 2 2 6 6 3 5 9 10 13 9 6 12 11 6 5 7 8 9 10 12 14 14 11 8 11 19
31 33 36 36 38 35 36 37 34 33 32 31 32 33 34 36 35 35 36 34 33 31 28 26 25 25 25 25 23 20 17 13 17 24 26 26 23 20 19 17 16 14 12 12 11 11 10 10 12 13 12 7 6 9 6 7 7 3 4 2 3 5 3 5 7 7 5 4 7 10 12 8 8 12 10 7 6 7 11 13 13 12 14 16 16 12 11 17
34 34 36 37 39 36 35 35 32 32 29 29 32 33 35 36 35 35 34 32 30 29 27 27 27 27 26 25 23 20 15 6 13 24 26 28 26 22 21 19 17 15 13 12 12 12 11 11 13 14 10 5 6 6 5 7 7 4 1 3 4 6 3 6 9 8 7 5 8 11 10 9 10 10 10 10 7 4 6 12 14 14 13 14 17 16 14 16
36 36 36 37 38 35 34 32 31 30 27 29 32 33 36 36 35 34 32 31 30 29 29 30 29 28 27 25 21 20 18 6 3 12 21 25 24 23 22 18 17 16 15 13 12 12 12 13 14 13 7 3 5 4 5 9 7 4 1 2 5 5 3 8 10 8 8 7 8 10 9 11 11 8 11 14 11 5 3 5 8 12 14 14 15 18 17 16
37 37 36 35 36 34 33 32 30 29 27 28 31 33 35 35 35 33 32 32 32 32 31 31 30 28 26 23 21 22 24 13 0 2 13 21 23 23 22 18 18 17 17 15 13 14 14 16 15 13 7 2 5 4 6 9 5 2 3 4 5 5 4 8 9 7 9 8 7 10 9 10 11 6 9 16 18 14 9 4 4 6 11 14 14 16 17 16
37 36 36 36 36 34 34 32 29 29 27 28 31 32 34 34 34 33 33 34 33 32 31 30 29 28 25 24 23 21 25 23 9 4 8 20 22 23 22 20 18 17 18 16 14 15 15 17 17 14 7 2 5 6 8 8 2 1 4 6 6 5 5 7 8 8 9 8 8 11 8 6 10 6 6 15 18 18 17 11 7 5 7 12 15 16 17 17
36 34 35 36 35 34 33 32 30 29 28 28 31 31 33 35 34 34 34 33 33 31 30 30 28 27 25 25 25 17 22 29 18 5 2 15 22 22 22 21 19 19 18 17 15 15 15 17 19 15 6 4 7 7 10 7 2 3 6 8 7 5 6 7 7 8 8 8 9 9 5 3 8 5 7 15 16 15 17 17 15 12 9 10 13 16 17 17
35 35 36 36 35 35 33 32 31 29 28 29 30 31 33 35 34 34 34 33 32 30 29 28 27 28 26 26 23 13 19 28 22 10 1 8 20 22 22 21 19 19 18 17 16 17 16 15 18 15 6 7 8 6 8 5 2 9 11 10 8 6 6 6 7 8 7 9 9 7 4 2 5 4 5 9 12 15 17 18 18 17 16 14 12 14 17 18
35 36 37 36 36 36 34 33 31 29 29 29 30 32 34 34 34 34 34 32 31 30 28 28 27 28 26 26 21 12 16 23 22 19 8 4 16 21 21 19 17 18 17 17 17 18 17 13 16 14 4 7 9 5 5 2 5 15 16 12 8 6 6 4 6 8 6 6 6 5 3 3 4 4 5 5 7 10 15 18 19 18 18 18 16 15 17 19
36 37 37 35 35 34 33 33 32 30 30 31 32 34 34 34 35 34 34 32 31 29 28 28 27 26 25 23 20 14 14 17 18 20 14 6 12 18 20 18 17 16 14 16 16 17 16 12 15 13 4 8 9 4 5 8 10 14 11 7 5 4 4 4 2 4 2 3 6 6 3 4 6 8 8 8 9 7 9 13 17 19 18 18 19 18 18 19
36 37 36 33 31 33 34 32 31 32 32 33 34 35 35 35 35 34 34 32 31 29 28 27 25 25 23 17 17 18 13 12 13 15 14 8 10 17 19 18 17 15 14 14 15 17 16 12 13 12 8 9 6 5 9 10 9 9 3 1 4 4 3 3 2 1 2 3 7 5 4 6 7 9 9 10 12 9 8 8 11 15 17 18 18 20 19 19
36 35 35 32 29 32 34 31 31 33 33 34 35 35 35 35 34 33 33 32 30 29 27 26 25 24 20 11 14 20 15 11 11 10 12 10 11 16 18 18 16 14 13 13 13 16 15 12 11 10 9 9 9 11 11 6 3 5 2 1 2 4 3 4 3 1 3 4 6 4 5 5 2 3 7 12 13 11 10 10 11 12 14 17 18 20 21 20
34 33 33 31 29 31 33 32 31 32 33 35 35 34 34 33 33 32 31 30 29 27 26 26 25 23 16 8 11 19 18 14 11 8 9 10 11 16 18 17 15 13 13 13 13 14 14 13 11 9 8 11 14 11 6 3 2 1 3 3 1 3 2 3 3 1 1 3 5 5 5 6 3 1 3 10 12 12 12 12 14 14 14 16 18 20 22 22
32 32 32 31 30 32 34 33 30 31 33 34 34 33 33 32 31 30 29 28 27 26 26 26 26 22 12 7 10 15 20 19 14 10 7 8 11 15 18 16 14 14 13 13 13 14 16 13 11 11 10 11 9 6 5 4 2 0 2 3 3 3 2 2 2 3 3 2 5 5 3 3 1 1 1 5 8 10 12 12 14 17 17 16 18 20 22 24
32 32 32 31 32 32 33 32 30 31 33 34 34 33 32 30 29 28 27 26 24 24 25 24 25 18 7 8 11 13 20 22 19 13 7 9 12 14 17 17 15 15 15 15 14 15 15 13 11 9 7 4 2 5 7 4 4 3 1 1 1 2 2 2 3 2 2 2 5 5 5 6 2 0 2 4 6 6 7 10 10 13 16 17 18 19 21 23
32 32 33 33 31 32 33 32 32 32 34 34 32 31 29 27 26 26 26 26 25 23 20 20 22 12 5 10 12 13 19 20 20 16 10 10 12 14 17 17 17 17 16 14 12 12 10 8 6 5 3 2 3 7 7 4 6 7 5 4 2 2 3 3 2 1 1 3 5 6 7 11 9 8 8 6 9 10 12 14 14 14 16 17 18 20 21 23
33 33 34 33 31 33 33 33 34 34 35 33 30 31 28 26 24 23 28 28 24 16 9 17 21 5 4 16 15 14 18 18 18 17 12 13 14 15 16 16 19 20 16 10 7 8 7 5 4 5 5 6 8 9 6 2 5 8 6 4 4 4 3 2 2 2 1 4 6 8 9 10 10 11 12 10 11 14 17 19 21 22 20 20 20 21 22 24
33 34 35 33 32 34 33 35 35 34 37 34 36 35 28 25 18 14 25 25 19 9 3 21 24 3 5 21 21 18 18 16 18 17 14 16 17 17 16 17 19 16 10 5 4 5 5 5 6 6 7 9 8 4 3 4 3 5 5 2 2 3 2 2 2 2 1 4 6 6 8 11 11 11 14 14 12 14 16 17 22 26 26 25 23 24 24 25
33 35 35 33 34 33 33 35 32 35 38 36 42 35 25 27 16 14 24 15 11 8 8 26 23 3 9 22 24 23 20 15 16 19 17 17 20 17 14 15 13 7 3 3 5 4 4 6 6 2 2 5 6 5 6 6 5 4 4 4 2 2 1 2 1 2 1 3 3 1 6 11 12 12 13 14 11 13 17 17 21 25 27 27 26 26 26 26
34 35 34 34 34 33 33 33 31 38 38 38 42 27 24 31 19 25 29 11 8 10 15 28 17 5 14 21 23 23 19 12 12 20 20 21 22 14 11 11 8 4 2 4 6 4 4 5 2 4 5 7 6 4 6 6 5 3 2 3 3 2 1 1 2 3 1 3 1 1 5 11 11 10 11 14 14 15 20 21 22 23 25 27 27 26 26 27
33 34 34 33 33 33 32 31 33 40 39 42 38 20 24 28 17 28 27 10 8 8 16 26 12 11 19 18 21 21 17 11 12 20 22 23 21 14 12 9 4 5 4 6 7 5 5 3 3 7 7 8 5 2 6 7 3 2 2 3 2 1 1 2 3 2 1 1 2 2 5 10 10 9 10 13 15 17 22 25 27 27 28 29 28 27 27 28
33 35 34 33 32 32 31 31 36 39 39 41 30 19 26 24 19 29 21 8 5 4 11 19 10 16 21 18 21 18 15 14 15 21 24 24 20 13 12 8 5 6 4 5 6 5 3 2 3 7 5 6 6 3 5 6 3 0 2 3 2 3 3 1 3 2 1 1 1 3 6 8 6 6 7 6 7 12 17 21 25 29 31 31 30 30 30 30
32 33 33 33 32 32 32 32 35 37 39 36 25 22 28 23 23 29 15 6 4 3 7 13 8 12 16 16 18 16 14 14 17 24 26 25 21 13 9 8 6 5 3 4 5 3 2 1 4 7 3 4 6 5 5 5 4 2 4 3 2 5 5 3 3 2 2 2 1 2 6 5 0 3 5 1 1 6 8 10 17 22 23 24 26 27 28 28
29 31 32 34 33 34 32 28 32 37 38 33 25 26 28 24 27 27 11 4 4 4 5 10 9 11 13 12 16 17 11 9 15 25 28 24 22 15 9 5 2 2 5 5 3 1 2 2 3 5 5 6 5 5 4 3 4 2 3 3 3 5 7 6 5 3 2 1 1 1 5 4 2 4 4 1 4 7 5 7 14 18 18 17 18 19 19 21
29 29 32 33 34 37 34 28 33 38 35 30 26 28 27 25 28 24 8 2 4 6 6 7 7 12 13 13 19 14 5 9 14 19 24 22 19 14 9 5 2 3 4 4 3 1 3 4 2 3 5 5 5 5 4 5 5 2 1 2 5 6 7 7 5 2 1 1 0 0 1 5 6 4 1 3 5 8 7 7 9 10 12 12 12 13 14 16
30 29 30 33 33 35 34 32 37 39 34 29 28 29 27 27 27 18 5 1 4 6 6 6 6 11 14 17 20 9 6 15 11 11 21 21 16 11 6 5 5 6 3 3 5 1 2 5 5 5 5 4 4 1 2 6 3 0 1 1 4 5 5 4 3 2 2 2 4 2 1 4 6 3 1 2 4 7 8 8 4 2 5 7 7 8 10 13
31 29 29 31 30 31 29 28 35 36 32 29 28 28 27 26 22 10 1 2 4 4 4 8 9 10 13 15 13 6 9 11 3 10 21 17 13 8 4 7 8 9 4 2 2 1 1 2 3 4 4 3 2 4 1 3 1 4 5 4 5 5 5 3 1 2 2 3 5 2 2 5 6 3 2 0 2 7 8 6 3 3 4 4 4 5 7 10
32 30 30 31 31 32 26 23 29 32 32 32 30 30 30 24 14 6 2 3 4 3 4 8 8 9 14 12 5 3 6 3 4 14 15 10 10 8 8 11 10 8 4 5 5 2 2 1 2 1 1 4 5 5 4 3 5 10 7 6 7 4 3 3 2 2 1 4 2 2 3 4 4 3 4 3 2 4 4 1 1 2 2 1 2 4 6 8
33 31 32 30 29 31 27 25 29 32 34 34 32 34 28 14 4 4 5 3 4 4 2 4 4 8 17 13 5 4 3 3 7 13 10 6 7 8 9 8 5 4 2 3 4 2 2 3 1 1 5 7 6 6 7 4 5 5 3 5 6 2 1 2 2 1 4 4 1 3 3 3 5 4 1 1 3 3 3 1 1 2 3 2 2 5 6 6
34 31 30 27 25 26 26 28 32 34 35 33 34 34 20 6 2 5 4 4 5 5 5 6 3 6 14 10 5 5 4 3 6 8 7 6 5 6 5 3 4 4 3 5 3 1 2 2 1 2 4 5 4 6 5 2 1 2 4 7 5 2 2 3 2 2 4 2 2 2 2 3 8 7 5 8 8 5 5 6 6 4 5 4 3 5 6 5
35 32 29 27 24 24 24 26 33 37 38 37 36 24 8 4 8 6 4 4 2 2 4 5 3 5 11 9 5 5 3 2 5 4 3 5 6 5 0 1 4 2 2 5 4 3 3 1 1 3 3 6 5 4 5 3 4 4 6 6 5 4 3 4 3 1 3 0 2 1 0 3 7 5 7 13 10 4 4 10 12 11 11 10 6 5 5 5
36 33 32 29 24 24 24 26 34 39 41 40 30 13 5 7 8 6 6 4 0 3 3 6 9 9 8 5 4 5 2 1 5 4 3 5 8 7 4 5 5 1 4 4 3 5 5 3 4 3 3 6 5 1 2 5 4 3 1 1 3 4 3 4 3 1 2 1 2 1 1 4 3 1 3 9 11 12 12 13 13 13 14 13 9 5 4 4
38 35 34 31 26 26 27 29 35 41 44 37 18 6 8 10 7 7 9 5 2 3 3 6 11 11 6 1 1 3 1 1 4 4 6 8 9 9 8 8 7 3 5 5 2 3 3 1 1 2 1 5 4 1 1 5 4 1 1 0 2 2 2 2 0 0 1 1 2 3 3 4 3 4 7 7 7 11 12 11 11 11 12 11 10 5 2 3
43 40 36 31 30 28 27 31 36 43 45 29 9 5 10 8 4 5 7 6 6 8 10 8 7 8 7 3 2 5 2 1 5 4 5 5 5 8 8 7 8 7 6 6 3 2 2 0 2 3 2 1 0 1 0 1 3 2 2 3 2 1 3 4 1 2 1 3 2 3 4 4 2 6 7 3 4 7 6 7 11 11 9 9 10 6 1 2
48 43 38 34 33 30 28 31 37 43 40 20 7 9 8 4 2 3 5 8 10 14 13 8 4 5 8 6 6 8 3 3 5 4 5 4 3 7 8 5 9 11 8 4 1 2 4 2 2 1 2 2 3 2 4 5 2 2 4 5 3 1 1 2 1 1 1 4 2 2 5 5 2 3 2 2 5 6 1 2 8 8 5 7 10 7 3 3
48 42 37 35 34 33 31 30 36 42 30 10 9 11 5 2 2 3 9 12 11 12 9 6 3 2 7 8 6 9 7 5 6 5 5 5 4 8 11 6 7 11 9 2 0 2 2 3 2 1 0 1 2 1 3 4 5 2 2 4 3 2 2 2 2 2 2 3 2 2 3 4 5 4 2 3 4 2 2 2 2 3 2 5 8 8 5 3
46 34 27 32 35 34 33 31 36 36 18 5 10 10 1 3 2 4 15 15 8 8 7 5 2 0 5 8 7 9 8 7 9 6 5 5 3 6 13 9 5 9 10 3 1 2 1 1 2 1 1 0 1 3 5 4 2 3 2 3 0 1 1 2 2 1 2 3 2 2 1 3 5 5 6 9 5 1 1 2 1 1 2 3 5 6 5 6
39 21 15 30 35 33 36 34 32 24 9 6 9 5 1 3 1 5 16 14 4 3 5 4 4 4 5 5 5 7 6 5 9 7 4 6 5 3 9 10 6 8 9 3 1 2 1 1 3 2 0 2 3 3 4 5 5 3 5 6 3 1 1 1 1 1 1 3 2 3 3 3 2 2 5 8 4 1 1 1 1 2 3 4 4 5 6 7
30 11 11 32 34 32 38 30 19 13 6 6 5 0 0 2 3 8 13 9 3 1 3 4 5 6 6 5 5 5 5 4 7 6 3 6 8 4 6 9 8 9 8 4 2 4 1 1 4 4 3 4 2 1 2 2 1 2 4 6 6 5 3 3 4 1 0 2 2 2 4 3 1 2 4 4 2 2 1 2 2 2 3 4 4 5 5 6
22 5 14 34 33 35 36 17 7 9 6 5 3 2 2 2 5 9 8 5 3 2 3 4 3 3 5 6 5 7 8 6 6 7 5 8 9 4 4 9 13 16 11 4 2 3 2 3 4 3 3 2 1 1 1 3 3 1 1 2 3 4 5 6 6 4 3 1 1 2 3 4 1 1 3 3 2 1 2 4 4 3 3 4 5 5 5 4
16 7 20 35 34 37 29 7 3 8 3 2 4 3 3 2 3 7 6 5 2 1 2 3 2 3 3 3 5 9 10 7 6 7 5 5 5 2 6 13 18 16 10 4 3 4 3 3 4 2 2 1 1 0 1 1 1 2 3 3 4 4 3 2 2 3 5 4 3 2 4 4 1 1 3 5 7 7 6 6 7 5 5 6 7 7 6 4
17 16 23 32 35 35 20 3 6 11 5 5 5 2 2 1 2 7 8 6 3 2 4 3 2 2 2 3 5 9 11 6 5 7 3 2 4 3 10 20 20 13 9 7 8 9 6 3 5 4 2 2 2 2 2 2 3 5 3 3 4 3 4 3 2 2 3 5 6 5 7 5 1 1 3 4 6 6 5 5 7 7 7 8 9 9 8 6
15 12 17 29 38 34 16 4 8 10 8 8 6 5 4 1 2 6 8 6 2 2 4 3 2 3 4 4 4 5 9 5 3 6 4 1 2 2 9 21 22 14 8 7 10 12 6 2 6 7 6 5 6 7 7 5 4 3 1 3 6 8 8 5 3 3 5 5 6 7 8 3 2 1 3 3 3 4 5 5 6 8 9 10 10 10 9 8
8 3 9 18 26 25 15 8 9 9 9 10 8 7 6 3 2 3 6 6 3 2 3 2 4 5 4 6 5 5 9 3 3 4 6 4 3 1 4 16 19 13 6 6 13 13 3 1 6 10 11 11 12 11 7 6 6 7 8 8 9 11 11 6 3 4 6 4 4 10 11 5 3 4 4 5 5 4 4 5 5 6 7 10 11 10 8 6
5 1 3 5 8 10 8 8 9 7 11 13 8 7 8 6 4 4 3 4 5 6 3 3 4 6 7 10 7 6 10 4 2 3 5 4 2 2 1 7 11 10 4 7 15 11 2 4 8 11 14 13 11 8 6 7 10 12 11 11 10 11 11 9 8 9 6 5 5 13 14 11 8 8 8 7 6 4 4 7 8 5 6 9 8 4 1 2
4 2 3 3 3 3 3 10 13 9 13 14 5 6 12 9 7 7 3 1 4 6 2 1 4 7 11 13 8 5 7 4 2 3 3 3 3 2 2 1 4 6 3 5 11 6 1 7 9 8 14 13 4 5 6 7 8 7 9 12 13 13 13 13 15 13 8 7 13 15 15 17 13 11 10 7 8 9 7 7 7 6 6 4 1 1 4 7
4 4 3 3 2 0 1 10 14 11 12 12 4 6 14 13 9 6 2 3 4 4 2 4 6 6 9 11 9 7 8 7 6 5 3 4 4 3 3 2 2 5 3 3 4 2 2 6 6 6 12 12 3 4 5 6 6 5 8 12 13 14 15 15 15 14 11 12 17 12 9 13 12 12 11 11 13 13 7 3 3 3 3 3 2 5 8 10
4 4 5 4 3 1 3 10 14 10 8 10 7 6 10 13 11 5 1 4 6 4 3 5 7 6 5 6 6 6 9 11 10 9 9 7 3 4 4 3 3 4 4 3 2 2 4 3 3 5 7 9 4 3 2 4 5 6 6 9 11 13 14 15 15 16 13 13 18 12 6 9 9 11 12 13 15 11 6 8 11 10 9 9 9 11 12 14
7 6 8 6 3 1 3 5 9 9 7 9 10 7 9 14 12 7 2 1 2 4 6 7 9 7 3 5 6 4 6 8 4 8 17 14 8 10 7 4 8 8 5 5 4 3 4 2 3 4 5 7 5 6 5 3 2 2 5 9 13 13 14 15 15 14 13 14 16 12 10 10 6 11 10 12 16 15 13 16 18 19 19 18 16 15 15 16
9 9 9 7 2 1 2 0 4 9 8 8 10 8 7 9 8 6 4 1 2 2 8 11 11 7 4 6 8 6 9 10 3 7 19 15 8 10 8 7 14 13 7 7 5 3 6 5 3 5 7 5 2 4 7 6 2 2 6 13 17 17 16 15 10 9 11 13 12 10 11 7 6 10 9 9 11 14 18 22 24 25 25 21 18 18 18 17
Wind_Direction
214 217 215 211 207 203 201 202 204 202 199 202 205 206 206 208 210 211 211 212 212 212 213 214 216 217 219 220 223 223 222 227 234 237 231 236 242 244 260 253 251 252 240 240 229 218 215 214 200 192 185 184 204 196 183 171 162 159 171 184 168 169 179 179 178 175 115 139 158 173 185 184 164 175 179 176 185 198 207 206 212 206 208 202 183 184 183 183
212 213 210 208 202 198 199 200 203 203 201 200 202 203 203 205 207 207 207 208 209 211 212 213 213 212 211 211 216 217 218 225 233 239 223 221 241 240 239 239 238 249 239 231 228 220 220 214 195 189 185 189 202 187 177 165 159 147 145 183 191 164 128 173 168 163 107 131 151 169 186 191 168 168 175 178 177 192 209 209 216 216 207 197 186 185 183 186
209 208 205 201 193 193 200 201 202 204 201 198 198 199 200 201 202 202 202 204 205 207 209 209 207 204 203 204 208 209 213 222 233 235 211 210 243 235 218 231 235 243 238 228 227 222 225 217 197 188 186 194 193 182 178 167 166 131 178 197 175 142 107 168 172 166 123 115 145 163 178 187 168 165 178 186 164 189 217 208 205 217 213 204 196 191 185 189
203 204 202 197 190 191 197 199 202 201 199 195 193 195 197 198 198 198 198 199 200 201 202 199 197 195 197 197 199 203 207 217 236 231 206 207 236 226 212 221 225 233 232 223 223 221 221 212 197 188 188 197 190 186 183 172 175 153 183 209 121 149 139 159 176 178 169 139 150 155 164 181 177 175 180 176 172 202 225 220 212 216 213 210 207 206 198 194
201 202 201 197 191 192 193 194 197 194 191 190 190 192 194 195 195 195 194 193 193 193 191 189 189 189 192 193 194 195 189 199 241 235 224 222 228 218 211 213 216 224 221 216 220 218 211 203 194 187 192 197 184 189 187 172 165 144 162 17 109 159 146 157 176 184 190 173 154 153 161 178 176 184 188 189 206 204 216 225 224 226 222 218 213 211 209 203
201 202 202 199 193 192 192 190 191 189 185 186 187 190 191 190 191 191 188 185 184 184 184 185 184 186 190 191 194 188 182 185 251 233 233 228 220 211 210 211 214 216 210 211 216 214 204 194 189 187 191 188 189 191 170 167 168 170 146 63 128 148 123 155 174 184 183 172 160 164 171 174 171 191 202 206 225 213 192 219 221 227 225 224 218 215 215 210
201 200 203 199 189 190 190 188 188 184 181 183 185 187 186 185 185 184 181 178 179 181 182 183 181 185 189 188 190 189 196 209 305 246 221 211 207 207 207 209 212 209 205 205 206 209 198 188 188 188 185 168 198 195 158 161 178 209 141 140 137 117 125 154 173 184 177 178 177 177 175 173 179 192 205 218 229 224 219 209 196 215 214 218 219 217 220 220
199 198 201 194 186 188 188 186 184 178 178 183 184 183 181 180 181 178 177 177 178 179 180 180 181 185 187 186 185 190 207 214 225 290 216 197 199 202 203 204 207 206 202 201 202 205 196 190 190 187 189 197 189 170 157 157 191 241 131 149 138 106 131 147 160 168 169 182 179 177 174 176 190 193 216 229 232 229 229 225 212 205 197 210 216 218 221 223
196 196 196 191 187 187 186 184 179 176 178 183 183 180 176 177 178 176 176 176 176 177 178 179 181 183 184 186 185 193 212 210 213 253 204 192 195 196 198 198 202 202 200 198 198 200 198 196 193 190 202 192 169 159 168 176 210 171 124 137 139 111 122 127 136 150 161 171 167 169 164 166 187 202 247 240 238 232 229 230 227 224 217 213 216 220 222 224
195 194 191 188 188 185 183 180 174 175 179 180 180 177 175 176 176 175 175 175 176 177 178 180 181 182 182 183 184 203 214 207 209 219 277 192 193 192 193 195 199 199 198 196 194 197 199 203 199 195 203 175 157 148 175 201 175 138 121 112 115 111 115 120 127 134 142 153 166 172 147 137 165 196 247 235 234 230 224 228 229 229 230 228 226 224 224 226
193 191 188 187 188 185 180 175 171 176 178 176 176 175 175 176 175 175 175 176 177 177 179 180 181 182 182 183 188 202 207 205 211 218 243 221 191 189 189 192 195 196 199 198 195 196 198 207 200 192 197 173 154 124 147 148 125 134 125 104 90 102 103 94 121 130 131 144 170 169 138 125 139 200 234 197 196 211 217 224 226 227 229 229 230 230 229 227
191 189 188 188 189 185 176 173 172 175 174 172 173 174 175 176 175 175 176 176 176 177 178 178 179 180 180 188 198 205 203 204 213 221 234 234 192 188 186 189 192 195 199 202 200 194 195 200 197 197 186 162 154 126 136 128 128 134 130 115 104 125 110 63 81 141 138 143 153 147 183 206 192 217 226 204 194 185 199 216 222 226 226 226 229 230 231 230
190 188 189 189 191 186 175 172 173 171 171 170 170 172 173 174 174 174 174 174 174 173 174 175 176 178 179 187 202 207 207 203 208 218 224 224 198 189 188 189 191 195 197 202 202 195 194 190 194 199 170 151 143 131 131 121 132 139 134 132 135 169 167 46 355 194 153 147 148 150 245 229 206 221 221 210 211 208 209 212 216 223 225 225 227 229 230 231
189 190 191 190 192 186 175 173 173 169 168 169 169 171 171 171 172 173 172 171 171 170 171 172 172 176 179 182 198 204 203 195 196 206 211 212 198 189 190 191 192 197 196 195 197 195 193 187 186 182 159 146 128 123 121 103 119 135 142 181 153 194 174 69 15 228 175 159 157 178 248 248 194 196 222 221 215 217 225 224 223 224 225 227 227 229 230 232
189 191 191 191 189 184 177 173 171 168 168 168 168 169 168 169 170 169 170 169 168 168 168 168 170 172 174 178 195 202 202 197 191 186 196 201 195 190 188 189 189 192 191 184 187 188 183 181 176 151 130 139 137 130 121 104 79 96 168 165 174 224 164 85 43 326 229 153 169 200 241 255 253 118 226 230 222 227 238 237 235 232 230 231 231 232 232 232
187 188 188 188 185 182 178 172 168 167 168 167 167 167 167 168 168 167 168 166 165 165 166 168 171 169 168 181 189 196 201 203 198 185 187 190 187 186 184 183 182 181 178 173 176 173 167 166 154 131 124 139 151 151 134 136 146 225 237 162 161 211 180 134 102 8 343 134 189 228 262 266 284 26 231 225 215 225 243 247 245 239 234 234 234 235 235 235
184 185 184 183 182 181 177 170 167 167 167 165 165 164 164 165 165 165 163 163 163 162 166 169 170 167 168 185 183 188 195 200 200 195 192 185 179 181 181 174 171 174 170 165 165 161 157 153 143 132 128 138 179 166 157 181 182 167 241 130 140 215 194 182 142 57 337 214 206 216 245 251 246 289 239 219 206 221 256 259 255 244 237 238 239 238 236 236
183 182 181 181 180 178 175 170 167 168 167 163 160 160 160 160 160 162 160 157 154 154 165 170 167 169 187 185 182 184 190 194 196 196 193 180 172 175 178 171 168 168 159 153 156 154 148 140 142 141 135 147 176 185 187 190 174 176 186 169 158 211 227 234 158 103 287 224 214 199 229 250 252 257 260 246 235 255 272 270 270 261 249 244 242 241 240 240
183 181 180 180 178 175 174 172 169 169 164 156 152 151 148 146 147 155 157 154 151 151 168 175 172 179 174 176 179 178 180 183 186 189 185 175 168 170 175 172 168 162 152 150 157 156 142 127 155 175 171 177 185 198 202 164 169 176 174 173 169 174 211 231 99 25 287 212 221 220 232 250 253 258 262 255 251 261 268 270 272 268 262 254 245 243 243 246
180 180 180 178 175 174 174 172 171 168 160 153 150 146 141 142 137 149 159 157 162 163 165 173 176 182 141 166 170 166 163 168 176 177 177 174 167 166 168 163 161 159 154 155 152 152 152 165 188 191 182 179 178 170 103 89 132 147 144 159 173 178 183 136 102 39 321 226 225 229 249 261 258 258 262 263 262 259 258 261 265 265 265 259 252 247 245 247
177 178 178 176 174 174 173 171 170 164 158 157 157 152 153 158 153 160 158 150 164 162 151 169 174 189 163 165 164 160 154 153 168 171 171 172 166 163 162 158 157 160 148 113 111 125 168 200 200 185 152 145 135 111 102 100 99 127 162 171 187 223 181 93 104 90 48 245 214 181 264 264 256 254 257 257 255 250 248 248 254 259 260 258 254 251 249 248
175 176 176 175 174 173 169 168 166 160 157 160 161 159 166 166 162 164 156 126 139 149 156 167 172 173 162 162 160 159 152 139 161 171 168 168 169 168 164 165 165 151 124 122 120 127 191 208 160 105 101 94 90 103 112 101 102 125 156 176 192 204 158 129 130 102 58 251 213 59 281 269 259 253 249 244 242 246 249 249 252 254 255 255 253 252 252 251
172 173 174 175 174 170 167 166 163 160 161 164 163 159 167 166 160 163 153 115 124 133 159 165 164 155 154 158 162 159 152 140 156 171 170 169 172 175 167 163 149 135 157 178 164 163 188 205 94 124 139 117 98 106 116 109 116 127 138 167 175 143 204 214 147 119 50 335 308 315 289 280 266 250 241 237 239 249 252 252 252 251 250 252 252 252 251 250
169 170 172 174 174 169 166 166 163 164 165 165 162 157 166 164 157 160 145 91 114 111 165 170 162 157 154 159 168 166 159 152 159 171 174 172 170 171 165 151 129 141 164 179 167 159 146 12 105 139 151 134 125 141 152 154 162 197 192 170 135 165 201 355 92 124 147 141 321 305 281 274 259 242 240 230 238 252 254 255 254 251 252 253 253 253 252 251
166 168 171 172 173 170 166 165 165 167 167 165 162 158 163 160 156 160 139 77 140 113 166 183 182 169 163 164 171 169 160 155 161 170 174 176 170 160 152 150 153 163 161 139 140 150 99 36 151 142 128 139 141 161 189 190 170 192 229 198 161 172 156 100 113 145 215 204 61 339 270 257 135 241 241 210 298 262 249 253 257 255 255 256 257 256 254 254
165 167 170 171 172 169 166 166 168 168 168 167 163 158 160 157 157 161 142 69 181 148 154 183 186 183 178 172 167 160 155 158 165 169 172 177 175 163 149 146 126 147 155 136 128 146 99 102 150 143 137 143 156 180 193 198 176 183 227 178 136 144 134 130 153 180 248 242 53 340 264 267 308 267 248 3 309 279 253 245 257 260 258 255 254 255 254 252
169 169 170 172 173 172 169 168 169 170 170 169 163 158 158 156 158 162 144 56 199 165 149 169 179 183 181 171 165 162 151 155 158 167 172 174 176 172 165 157 112 135 158 145 154 147 114 132 139 129 134 145 169 185 186 187 182 173 221 144 129 133 140 145 153 182 314 348 248 157 299 285 282 269 306 2 298 280 269 249 247 253 258 255 252 255 254 253
172 172 172 174 176 178 176 173 171 171 170 166 160 158 157 156 159 161 153 170 171 142 150 169 169 175 174 168 170 167 132 147 150 172 175 171 170 170 173 175 141 129 147 183 188 165 103 165 171 146 149 174 182 181 176 181 179 355 261 128 119 115 116 129 134 127 40 324 238 166 97 267 266 246 135 354 288 269 266 256 245 261 276 269 263 265 266 265
174 174 174 174 176 178 180 180 176 171 166 161 158 157 156 154 153 150 166 198 149 111 141 159 159 167 166 162 168 155 137 149 138 162 168 168 169 167 151 157 134 112 83 18 155 96 19 194 178 158 169 172 124 25 331 225 123 148 163 108 90 84 77 86 96 113 104 272 244 145 86 263 266 244 179 116 264 253 258 260 278 314 301 287 288 293 286 279
175 174 173 174 174 173 174 178 177 171 163 160 159 158 155 150 148 151 194 197 148 114 119 151 164 167 160 154 153 146 143 131 100 139 151 153 156 142 116 129 125 112 73 35 69 57 6 107 106 82 125 123 107 64 22 354 120 143 157 112 92 73 59 73 47 74 197 250 249 58 13 284 274 256 205 199 234 250 257 263 306 313 331 355 354 342 320 300
174 175 175 174 171 170 168 167 172 170 164 160 157 157 153 143 145 177 173 152 131 129 127 155 162 162 167 166 156 152 129 74 130 144 147 140 136 125 119 128 119 107 107 84 82 33 45 104 99 93 118 121 111 76 47 44 135 149 166 132 112 84 83 111 79 116 228 233 82 40 349 267 246 245 208 274 289 259 242 242 297 341 351 356 7 1 346 325
174 177 177 173 169 172 172 167 168 167 162 159 157 157 153 131 195 198 163 142 152 168 174 170 180 178 174 165 124 136 123 109 162 163 152 147 149 147 151 178 161 138 172 168 133 84 114 97 29 91 143 171 151 100 77 49 240 228 165 153 148 137 157 195 182 193 233 235 62 28 338 250 245 257 274 275 270 241 221 242 258 287 314 319 339 353 357 348
176 178 176 172 170 172 172 171 168 164 162 160 158 156 148 164 196 192 163 169 172 144 140 134 129 156 161 151 137 146 109 120 172 168 141 150 162 166 182 225 175 151 162 159 138 150 159 108 177 145 176 218 203 137 144 180 203 193 165 165 170 149 164 200 185 237 261 280 53 16 318 258 261 267 256 257 273 297 253 253 259 264 275 284 292 323 4 12
179 180 175 170 169 168 168 171 170 166 163 161 158 151 151 187 197 173 164 195 198 79 102 115 117 133 152 151 160 165 107 109 171 153 141 161 168 181 200 199 199 96 101 141 157 171 184 202 183 163 155 189 202 224 152 135 151 193 156 147 180 171 190 201 182 217 232 97 83 151 200 235 253 18 242 254 284 298 280 264 260 259 266 270 267 289 357 17
180 181 175 167 166 166 166 170 170 168 165 161 158 157 179 193 198 175 169 167 140 121 101 116 128 142 161 84 72 207 238 154 177 159 160 175 181 185 187 188 196 172 134 157 176 165 203 243 111 30 32 163 175 257 93 108 124 193 13 132 213 195 138 116 64 93 76 49 160 183 239 247 263 305 280 262 278 283 275 267 261 264 273 262 243 254 342 49
179 178 175 169 166 163 163 167 170 170 167 162 159 188 196 204 183 170 162 129 137 138 117 117 132 147 163 144 181 223 292 115 172 184 181 189 207 194 189 184 186 197 179 159 150 151 173 298 25 25 41 79 342 247 119 113 147 152 165 184 203 38 100 115 107 60 34 268 210 169 252 269 289 285 279 277 281 271 258 258 257 259 271 248 223 228 238 98
172 174 173 170 166 160 160 165 169 172 171 167 183 195 202 215 135 114 124 111 128 141 132 138 164 164 165 164 183 189 176 137 173 203 182 174 227 198 193 200 189 198 201 166 163 206 162 122 23 23 99 29 347 82 65 20 38 144 179 168 147 62 68 131 190 92 150 253 241 175 247 273 271 262 315 10 281 267 247 281 256 242 243 229 215 218 214 142
168 169 170 170 167 159 156 163 170 172 172 174 206 205 208 184 149 120 132 126 134 152 154 158 164 184 175 170 173 172 170 168 174 194 178 173 220 186 178 197 191 195 209 194 132 214 156 121 80 20 103 37 345 136 110 27 14 22 167 143 134 198 195 173 186 172 198 238 252 226 254 264 228 224 283 270 237 241 8 346 251 194 182 208 214 224 224 180
165 161 164 170 168 158 153 162 170 170 167 189 209 211 198 126 149 154 147 138 137 162 167 164 152 225 185 170 150 157 178 181 164 176 190 184 216 181 177 188 177 183 197 195 159 168 130 168 145 84 337 48 329 225 193 165 66 34 126 134 343 283 201 177 158 173 216 222 243 259 258 239 218 205 236 240 219 146 326 332 62 149 152 171 196 208 206 196
157 149 157 171 170 161 156 158 163 164 172 210 202 205 89 113 102 168 158 145 131 171 165 168 167 156 163 159 135 154 181 177 164 184 206 182 197 213 190 187 160 161 168 137 108 151 116 232 154 110 198 194 184 217 216 185 156 150 163 165 177 116 45 228 153 81 231 208 215 250 256 243 216 183 216 237 255 40 344 328 49 117 114 120 150 173 184 193
148 130 157 170 171 164 156 152 156 167 196 210 196 65 160 155 134 166 169 153 111 103 128 138 157 148 143 153 155 157 159 159 174 191 207 191 203 226 204 190 159 143 144 123 156 173 164 185 142 133 172 189 182 351 320 287 206 168 184 180 174 154 134 184 195 146 259 230 197 235 267 261 161 172 213 235 291 51 86 254 230 146 124 126 140 156 177 195
148 116 163 168 171 164 155 147 158 179 201 201 176 94 130 140 140 160 173 163 120 77 99 114 132 137 145 157 157 154 156 163 180 190 209 214 213 212 200 186 162 154 155 145 152 151 100 97 114 128 173 194 330 2 245 280 309 325 266 208 172 169 170 188 204 180 143 164 99 86 280 278 96 150 228 235 246 221 221 238 228 198 168 150 138 146 163 190
147 122 159 168 172 166 158 141 160 180 215 168 130 91 114 120 142 155 172 182 157 106 129 132 138 154 162 158 148 157 165 167 182 194 203 210 213 200 176 171 162 160 163 147 140 152 130 119 123 104 80 67 346 173 162 315 290 236 238 208 190 200 192 180 188 155 150 169 160 156 254 258 129 132 247 255 264 267 255 228 209 194 171 159 149 141 145 164
130 126 156 172 175 168 163 158 176 188 198 138 120 113 132 144 169 163 178 189 177 155 147 138 162 158 148 150 150 166 173 172 201 211 203 180 192 177 170 170 167 170 182 180 174 174 175 155 134 123 108 132 169 195 196 205 209 220 223 185 185 152 93 84 96 135 194 196 170 192 242 244 149 72 270 259 269 273 255 217 197 187 174 167 154 139 142 159
123 123 153 173 178 177 180 202 183 187 182 157 164 175 149 100 210 183 180 173 162 163 145 136 158 121 116 137 114 155 181 179 187 196 193 183 182 155 173 178 178 183 194 190 169 166 179 186 153 160 168 171 188 202 199 190 183 208 187 159 183 170 152 158 142 154 212 194 163 204 235 229 122 252 262 239 246 250 230 214 199 188 180 170 153 140 143 151
123 107 145 167 183 190 200 207 187 185 180 171 177 183 170 161 179 183 172 166 173 152 104 97 149 115 114 152 131 160 193 191 45 172 187 183 168 43 187 186 188 191 192 180 166 157 156 264 188 194 194 191 203 206 184 137 146 191 197 176 181 186 180 169 127 182 205 165 170 221 231 219 182 209 223 205 205 219 209 207 212 204 193 176 154 138 134 138
115 100 137 151 185 197 205 198 190 189 180 175 172 178 177 159 141 165 183 189 190 168 94 39 168 161 161 163 150 172 188 175 72 160 172 168 142 31 148 184 195 197 183 174 171 156 123 216 205 213 214 211 209 195 164 152 176 196 191 172 174 181 179 181 197 208 177 125 218 232 227 231 217 191 201 204 192 204 222 221 220 205 181 172 152 123 116 266
105 121 125 126 169 201 211 191 190 187 179 178 174 173 176 167 157 172 181 147 187 184 146 74 200 190 173 164 154 155 166 161 176 173 142 149 146 105 106 125 200 201 184 170 176 163 175 209 204 210 222 227 199 137 169 176 181 188 174 171 175 172 177 192 209 211 165 167 234 232 216 227 220 184 196 208 193 202 210 205 199 180 177 183 162 281 256 247
110 119 108 107 139 248 184 175 178 178 175 178 183 183 182 178 169 167 132 118 174 210 207 181 194 192 175 170 161 155 162 169 190 199 167 147 154 141 127 126 189 194 172 149 179 195 207 209 196 189 221 231 177 118 191 174 153 172 176 176 173 173 187 198 209 215 193 204 239 234 205 228 219 184 197 211 206 207 201 196 231 238 253 283 263 229 236 231
143 140 129 107 84 65 141 160 165 167 171 179 189 193 187 183 175 160 141 165 171 184 197 176 164 151 160 180 174 176 185 182 188 197 173 144 158 190 179 175 166 162 169 164 155 198 207 209 149 147 220 232 175 131 205 173 164 178 171 173 173 176 194 204 214 219 208 221 241 238 239 258 222 179 192 214 222 232 246 257 264 265 262 257 239 237 245 232
173 158 146 127 79 86 172 164 165 167 175 189 193 188 189 192 180 146 130 232 174 169 176 160 140 127 135 186 188 199 190 175 170 182 174 168 174 182 185 182 159 150 170 185 162 162 194 199 101 139 212 226 186 165 162 119 101 145 156 179 184 185 198 206 212 214 205 218 234 236 253 263 202 156 174 208 224 237 246 250 253 253 252 251 245 244 245 234
162 158 154 142 102 181 196 204 172 176 180 191 191 182 180 189 179 151 151 137 51 122 162 155 143 131 144 184 198 201 181 176 173 174 179 181 171 168 175 171 168 166 166 174 172 169 180 177 147 172 202 222 209 158 141 113 101 215 201 192 189 195 203 204 211 217 207 212 218 220 233 232 144 146 173 192 212 224 230 236 241 244 248 250 248 246 245 240